Regional Weather Roundup
Issued by NWS

Home | Current Version | Previous Version | Text Only | Print | Product List | Glossary Off
Versions: 1 2 3 4 5 6 7 8 9 10 11 12 13 14 15 16 17 18 19 20 21 22 23 24 25 26 27 28 29 30 31 32 33 34 35 36 37 38 39 40 41 42 43 44 45 46 47 48 49 50

000
ASUS43 KFSD 211710
RWRSD

WEATHER ROUNDUP FOR SOUTH DAKOTA
NATIONAL WEATHER SERVICE SIOUX FALLS SD
1200 PM CDT SUN SEP 21 2014

NOTE: "FAIR" INDICATES FEW OR NO CLOUDS BELOW 12,000 FEET WITH NO
SIGNIFICANT WEATHER AND/OR OBSTRUCTIONS TO VISIBILITY.


SDZ001>005-009-010-012>017-211800-
NORTHWEST AND NORTH CENTRAL SOUTH DAKOTA

CITY           SKY/WX    TMP DP  RH WIND       PRES   REMARKS
BUFFALO          N/A     67  36  31 VRB3      30.27F
FAITH            N/A     66  40  38 N6        30.33S
MOBRIDGE       SUNNY     65  46  50 NW6       30.28S
$$

SDZ012>016-024>037-041>051-057-063-072>074-211800-
SOUTHWEST AND SOUTH CENTRAL SOUTH DAKOTA

CITY           SKY/WX    TMP DP  RH WIND       PRES   REMARKS
RAPID CTY ARPT SUNNY     67  37  33 SE7       30.36S
PIERRE         SUNNY     66  45  46 W7        30.31R
CUSTER         SUNNY     63  36  36 VRB6      30.41F
ELLSWORTH AFB  SUNNY     67  35  31 SE5       30.35F
PHILIP         SUNNY     70  39  32 VRB6      30.33S
PINE RIDGE     SUNNY     66  36  32 CALM      30.37S
WINNER         FAIR      67  41  38 NW10      30.33S
$$

SDZ004>011-016>023-039-040-211800-
NORTHEAST SOUTH DAKOTA

CITY           SKY/WX    TMP DP  RH WIND       PRES   REMARKS
ABERDEEN       MOSUNNY   65  49  56 N10       30.27S
WATERTOWN      SUNNY     63  46  54 N17       30.24R
SISSETON         N/A     64  51  62 N12G21    30.23R
$$

SDZ017-020-022-023-036>040-048>070-211800-
SOUTHEAST SOUTH DAKOTA

CITY           SKY/WX    TMP DP  RH WIND       PRES   REMARKS
SIOUX FALLS    MOSUNNY   67  46  47 N13       30.24R
HURON          SUNNY     66  47  50 N12       30.27S
CHAMBERLAIN    SUNNY     66  44  44 N7        30.30F
MITCHELL       SUNNY     67  47  48 N10       30.28S
YANKTON        SUNNY     64  48  55 NW14      30.27S
$$

ABBREVIATIONS USED IN REMARKS
   TC - TEMPERATURE IN CELSIUS
  WCI - WIND CHILL INDEX
   HX - HEAT INDEX
  VSB - VISIBILITY




USA.gov is the U.S. government's official web portal to all federal, state and local government web resources and services.